Weather History for PPIZ - April, 2014

Change the Weather History Date:

Thursday, April 17, 2014

  Actual Average Record
Temperature  
Mean Temperature 12 °F -  
Max Temperature 15 °F 10 °F 36 °F (1999)
Min Temperature 8 °F 0 °F -18 °F (1997)
Degree Days  
Heating Degree Days 54    
Moisture  
Dew Point 9 °F    
Average Humidity 89    
Maximum Humidity 92    
Minimum Humidity 83    
Precipitation  
Precipitation 0.00 in - - ()
Sea Level Pressure  
Sea Level Pressure 29.92 in    
Wind  
Wind Speed 10 mph (NNE)    
Max Wind Speed 18 mph    
Max Gust Speed -    
Visibility 5 miles    
Events Fog , Snow    
Averages and records for this station are not official NWS values.
T = Trace of Precipitation, MM = Missing Value Source: NWS Daily Summary

Daily Weather History Graph

Daily Weather History Graph

Search for Another Location

Airport or City:

Trip Planner

Search our weather history database for the weather conditions in past years. The results will help you decide how hot, cold, wet, or windy it might be!

Date:

Astronomy

Apr. 17, 2014 Rise Set
Actual Time 6:38 AM AKDT 11:07 PM AKDT
Civil Twilight 5:14 AM AKDT 12:34 AM AKDT
Nautical Twilight Sun does not set Sun does not set
Astronomical Twilight Sun does not set Sun does not set
Moon 2:13 AM AKDT (4/17) 7:01 AM AKDT (4/17)
Length of Visible Light 19h 19m
Length of Day
16h 29m
Waning Gibbous, 93% of the Moon is Illuminated
Apr 17
Waning Gibbous
Apr 21
Last Quarter
Apr 28
New
May 6
First Quarter
May 14
Full

Hourly Weather History & Observations

Time (AKDT) Temp. Windchill Dew Point Humidity Pressure Visibility Wind Dir Wind Speed Gust Speed Precip Events Conditions
12:56 AM 15.1 °F 6.4 °F 13.1 °F 92% 30.02 in 10.0 mi NE 5.8 mph - N/A   Unknown
1:56 AM 15.1 °F 4.2 °F 13.1 °F 92% 30.01 in 10.0 mi East 8.1 mph - N/A   Unknown
2:56 AM 15.1 °F 6.4 °F 13.1 °F 92% 30.01 in 10.0 mi Variable 5.8 mph - N/A   Unknown
3:56 AM 15.1 °F 4.2 °F 12.0 °F 88% 30.00 in 10.0 mi NNE 8.1 mph - N/A   Unknown
4:56 AM 14.0 °F 2.9 °F 12.0 °F 92% 29.99 in 10.0 mi NNE 8.1 mph - N/A   Unknown
5:56 AM 14.0 °F 1.2 °F 12.0 °F 92% 29.97 in 10.0 mi NNE 10.4 mph - N/A   Unknown
6:56 AM 14.0 °F -0.2 °F 11.1 °F 88% 29.96 in 10.0 mi NNE 12.7 mph - 0.00 in Snow Light Snow
7:56 AM 13.1 °F -0.7 °F 10.0 °F 88% 29.96 in 10.0 mi NNE 11.5 mph - 0.00 in   Unknown
8:27 AM 12.2 °F -2.5 °F 10.4 °F 92% 29.94 in 1.8 mi NNE 12.7 mph - N/A   Mist
8:30 AM 12.2 °F -2.5 °F 8.6 °F 85% 29.94 in 1.0 mi NNE 12.7 mph - N/A   Mist
8:38 AM 12.2 °F -1.8 °F 8.6 °F 85% 29.94 in 0.5 mi NNE 11.5 mph - N/A Fog Light Freezing Fog
8:56 AM 11.1 °F -3.2 °F 9.1 °F 92% 29.95 in 0.5 mi NNE 11.5 mph - N/A Fog Light Freezing Fog
9:05 AM 12.2 °F -1.0 °F 8.6 °F 85% 29.94 in 0.8 mi NNE 10.4 mph - N/A   Mist
9:12 AM 12.2 °F -1.8 °F 8.6 °F 85% 29.93 in 1.2 mi NNE 11.5 mph - N/A   Mist
9:16 AM 12.2 °F -1.8 °F 8.6 °F 85% 29.93 in 0.8 mi NNE 11.5 mph - N/A   Mist
9:31 AM 10.4 °F -4.1 °F 8.6 °F 92% 29.93 in 0.5 mi NNE 11.5 mph - N/A Fog Light Freezing Fog
9:44 AM 10.4 °F -4.8 °F 8.6 °F 92% 29.93 in 1.0 mi NNE 12.7 mph - N/A   Mist
9:56 AM 10.0 °F -4.5 °F 8.1 °F 92% 29.95 in 1.0 mi NNE 11.5 mph - N/A   Mist
10:03 AM 10.4 °F -4.1 °F 8.6 °F 92% 29.93 in 1.5 mi NNE 11.5 mph - N/A   Mist
10:10 AM 10.4 °F -3.3 °F 8.6 °F 92% 29.93 in 1.2 mi NNE 10.4 mph - N/A   Mist
10:15 AM 10.4 °F -3.3 °F 8.6 °F 92% 29.93 in 0.8 mi NNE 10.4 mph - N/A   Mist
10:25 AM 10.4 °F -4.1 °F 8.6 °F 92% 29.92 in 0.5 mi NNE 11.5 mph - N/A Fog Light Freezing Fog
10:38 AM 10.4 °F -4.1 °F 6.8 °F 85% 29.92 in 0.2 mi NNE 11.5 mph - N/A Fog Light Freezing Fog
10:56 AM 10.0 °F -3.7 °F 7.2 °F 88% 29.93 in 0.2 mi NNE 10.4 mph - N/A Fog Light Freezing Fog
11:56 AM 10.0 °F -3.7 °F 7.2 °F 88% 29.92 in 0.2 mi North 10.4 mph - 0.00 in Fog , Snow Light Snow
12:23 PM 10.4 °F -2.4 °F 8.6 °F 92% 29.90 in 0.5 mi NNE 9.2 mph - 0.00 in Fog Light Freezing Fog
12:45 PM 10.4 °F -1.5 °F 8.6 °F 92% 29.90 in 0.8 mi NNE 8.1 mph - 0.00 in   Mist
12:56 PM 10.4 °F -1.5 °F 8.6 °F 92% 29.90 in 1.5 mi NE 8.1 mph - N/A Snow Light Snow
1:04 PM 12.2 °F 2.9 °F 8.6 °F 85% 29.90 in 3.0 mi ENE 5.8 mph - 0.00 in Snow Light Snow
1:56 PM 11.1 °F -3.2 °F 9.1 °F 92% 29.91 in 4.0 mi NNE 11.5 mph - 0.00 in Snow Light Snow
2:56 PM 12.0 °F -2.0 °F 9.1 °F 88% 29.89 in 5.0 mi NNE 11.5 mph - 0.00 in Snow Light Snow
3:56 PM 12.0 °F -2.7 °F 10.0 °F 92% 29.88 in 10.0 mi NNE 12.7 mph - 0.00 in   Unknown
4:56 PM 13.1 °F -2.6 °F 10.0 °F 88% 29.87 in 9.0 mi NNE 15.0 mph - 0.00 in Snow Light Snow
5:56 PM 12.0 °F -4.5 °F 9.1 °F 88% 29.86 in 5.0 mi NNE 16.1 mph - 0.00 in Snow Light Snow
6:56 PM 12.0 °F -5.6 °F 9.1 °F 88% 29.86 in 10.0 mi NNE 18.4 mph - 0.00 in   Unknown
7:56 PM 11.1 °F -6.7 °F 8.1 °F 87% 29.85 in 10.0 mi NNE 18.4 mph - 0.00 in Snow Light Snow
8:56 PM 9.1 °F -8.8 °F 7.2 °F 92% 29.85 in 10.0 mi NE 17.3 mph - 0.00 in Snow Light Snow
9:56 PM 9.1 °F -9.3 °F 5.0 °F 83% 29.84 in 10.0 mi NNE 18.4 mph - 0.00 in Snow Light Snow
10:56 PM 8.1 °F -10.7 °F 5.0 °F 87% 29.83 in 10.0 mi NNE 18.4 mph - 0.00 in Snow Light Snow
11:56 PM 9.1 °F -8.8 °F 6.1 °F 87% 29.83 in 10.0 mi NE 17.3 mph - 0.00 in Snow Light Snow